Flag for U.S.A. Weather past 2 weeks in Salt Lake City, Utah, U.S.A.

Now
72 °F

Passing clouds.


Feels Like: 76 °F
Forecast: 60 / 77 °F
Wind: 18 mph from South

Location: Salt Lake City International Airport

Current Time: Sep 5, 2015 at 8:55:29 AM

Latest Report: Sep 5, 2015 at 7:53 AM


Visibility: 10 mi

Pressure: 29.69 "Hg (25.51 "Hg at 1312m altitude)

Humidity: 30%

Dew point: 39 °F

Location of Salt Lake CityLocation

Historic Weather in Salt Lake City — Graph

°F

Salt Lake City temperature yesterday

Maximum temperature yesterday: 88 °F (at 4:53 PM)
Minimum temperature yesterday: 72 °F (at 6:53 AM)
Average temperature yesterday: 80 °F

Past Weeks' High & Low Weather Summary

 TemperatureHumidityPressure
High97 °F (Aug 24, 2:53 PM)73% (Aug 27, 3:53 AM)30.09 "Hg (Aug 27, 3:53 AM)
Low61 °F (Aug 23, 3:53 AM)8% (Aug 21, 4:53 PM)29.52 "Hg (Sep 4, 5:53 PM)
Average80 °F28%29.82 "Hg
* Reported Aug 21 7:53 AM — Sep 5 7:53 AM, Salt Lake City, Weather by CustomWeather, © 2015

Note: Actual official high and low records may vary slightly from our data, if they occured in-between our weather recording intervals... More about our weather records

Advertising

Salt Lake City weather history for previous 24 hours

 ConditionsComfort  
Time TempWeatherWind HumidityBarometerVisibility
7:53 AM
Sat, Sep 5
72 °FPassing clouds.18 mph30%29.69 "Hg10 mi
6:53 AM73 °FPassing clouds.23 mph33%29.66 "Hg10 mi
5:53 AM74 °FPassing clouds.24 mph29%29.65 "Hg10 mi
4:53 AM74 °FLight rain. Passing clouds.21 mph32%29.65 "Hg10 mi
3:53 AM74 °FPassing clouds.20 mph32%29.64 "Hg10 mi
2:53 AM75 °FPassing clouds.20 mph31%29.62 "Hg10 mi
1:53 AM76 °FPartly cloudy.17 mph25%29.62 "Hg10 mi
12:53 AM77 °FPassing clouds.20 mph23%29.61 "Hg10 mi
11:53 PM
Fri, Sep 4
78 °FPassing clouds.17 mph22%29.59 "Hg10 mi
10:53 PM78 °FPassing clouds.15 mph23%29.58 "Hg10 mi
9:53 PM80 °FPartly cloudy.13 mph19%29.57 "Hg10 mi
8:53 PM81 °FScattered clouds.16 mph18%29.55 "Hg10 mi
7:53 PM83 °FBroken clouds.23 mph17%29.53 "Hg10 mi
6:53 PM85 °FBroken clouds.21 mph16%29.53 "Hg10 mi
5:53 PM87 °FBroken clouds.22 mph14%29.52 "Hg10 mi
4:53 PM88 °FBroken clouds.29 mph13%29.53 "Hg10 mi
3:53 PM87 °FScattered clouds.18 mph15%29.55 "Hg10 mi
2:53 PM87 °FScattered clouds.28 mph16%29.58 "Hg10 mi
1:53 PM86 °FScattered clouds.29 mph16%29.60 "Hg10 mi
12:53 PM85 °FScattered clouds.23 mph16%29.63 "Hg10 mi
11:53 AM84 °FScattered clouds.21 mph18%29.65 "Hg10 mi
10:53 AM81 °FScattered clouds.24 mph20%29.67 "Hg10 mi
9:53 AM79 °FPartly sunny.25 mph21%29.67 "Hg10 mi
8:53 AM76 °FPartly sunny.20 mph24%29.68 "Hg10 mi
Weather by CustomWeather, © 2015

See weather overviewHow to use our weather pages